PHISAT 2

Last updated on Mon Sep 16 2024 00:02:03 GMT+0000 (Coordinated Universal Time)

1 60470U 24149C 24258.91430897 .00012508 00000+0 62161-3 0 9993 2 60470 97.4411 333.9887 0001432 17.8539 342.2745 15.17789947 4413
UTC large
Height (km)
Speed (km/s)
/
Latitude / Longitude
Inclination (degrees)
Orbital Period (minutes)
Azimuth
Elevation
Range (km)
Doppler Factor

Next 0 passes for location: London (51.5072 / 0.1276)

Sorry there are no passes over London.